Miscellaneous Local Product
Issued by NWS Hastings, NE

Home | Current Version | Previous Version | Text Only | Print | Product List | Glossary Off
Versions: 1 2 3 4 5 6 7 8 9 10 11 12 13 14 15 16 17 18 19 20 21 22 23 24 25 26 27 28 29 30 31 32 33 34 35 36 37 38 39 40 41 42 43 44 45 46 47 48 49 50

426
AXUS43 KGID 241502
MISGRI

GID CWA HOURLY WEATHER ROUNDUP
NATIONAL WEATHER SERVICE HASTINGS NE
1000 AM CDT MON APR 24 2017

NOTE: "FAIR" INDICATES FEW OR NO CLOUDS BELOW 12,000 FEET WITH NO
SIGNIFICANT WEATHER AND/OR OBSTRUCTIONS TO VISIBILITY.

...SOUTH CENTRAL NEBRASKA...

CITY           SKY/WX    TMP DP  RH WIND       PRES   REMARKS
GRAND ISLAND   MOSUNNY   60  37  42 S28G35    29.60F
HASTINGS       CLOUDY    61  36  39 S24G35    29.59F
KEARNEY        MOSUNNY   59  36  41 S24G31    29.58S
ORD            CLOUDY    55  34  45 S17G26    29.55F
YORK           CLOUDY    59  37  44 S30G39    29.61F
AURORA         CLOUDY    62  35  36 S28G35    29.59F
LEXINGTON      PTSUNNY   57  38  48 S9        29.56S
HOLDREGE       MOSUNNY   58  36  43 S23G30    29.56F
HEBRON         SUNNY     61  37  41 S24G40    29.62F

...NEBRASKA PANHANDLE...

CITY           SKY/WX    TMP DP  RH WIND       PRES   REMARKS
CHADRON        MOSUNNY   55  41  59 NW16G26   29.63R
ALLIANCE       SUNNY     57  39  51 NW21G31   29.62S
SCOTTSBLUFF    SUNNY     57  41  55 NW16G22   29.67S
SIDNEY         SUNNY     57  39  51 NW28G36   29.65S

...WESTERN AND NORTH CENTRAL NEBRASKA...

CITY           SKY/WX    TMP DP  RH WIND       PRES   REMARKS
VALENTINE      CLOUDY    48  37  65 NW8G18    29.57R
AINSWORTH      PTSUNNY   55  40  55 SW13      29.54S
ONEILL         CLOUDY    50  38  65 S9        29.57F
BROKEN BOW     CLOUDY    55  37  50 S12       29.56F
IMPERIAL       PTSUNNY   60  40  47 NW20G32   29.60R
NORTH PLATTE   PTSUNNY   53  39  59 W3        29.55F
MCCOOK         PTSUNNY   56  41  57 N13       29.53F

...EASTERN NEBRASKA...

CITY           SKY/WX    TMP DP  RH WIND       PRES   REMARKS
NORFOLK        CLOUDY    59  37  44 S18G26    29.63F
SO SIOUX CITY  CLOUDY    60  37  42 S22G33    29.68F
TEKAMAH        CLOUDY    62  38  40 S30       29.70F
COLUMBUS       MOSUNNY   61  37  41 S23G32    29.63F
ALBION         CLOUDY    60  36  41 S22G28    29.61F
OMAHA EPPLEY   PTSUNNY   61  37  41 S24G33    29.72F
OFFUTT AFB     PTSUNNY   61  36  40 S21G30    29.72F
MILLARD        CLOUDY    62  38  41 SE20G28   29.71F
LINCOLN        MOSUNNY   62  37  39 S28G40    29.67F
NEBRASKA CITY  CLOUDY    60  28  29 S24G38    29.75F
BEATRICE       MOSUNNY   61  39  44 S17G31    29.70F
FALLS CITY     SUNNY     61  37  41 S25G37    29.78F

...NORTHERN KANSAS...

CITY           SKY/WX    TMP DP  RH WIND       PRES   REMARKS
GOODLAND       SUNNY     62  41  46 N22       29.59S
HILL CITY      SUNNY     63  39  41 SW16G25   29.57F
NORTON         SUNNY     61  36  39 SW12G23   29.55R
PHILLIPSBURG   SUNNY     63  36  36 S20G26    29.57F
SMITH CENTER   SUNNY     61  37  41 S31G37    29.59F
HAYS           SUNNY     61  39  44 S23G30    29.61S
RUSSELL        SUNNY     61  38  42 S38G52    29.58F
CONCORDIA      SUNNY     61  41  47 S24G37    29.65F
SALINA         CLOUDY    61  41  47 S28G41    29.68F
TOPEKA         SUNNY     63  39  41 S20G32    29.81F



USA.gov is the U.S. government's official web portal to all federal, state and local government web resources and services.